User: anonymous   Login
Location: Unspecified
(0.0000°N, 0.0000°E)
Time: 10:32:18
(UTC+00:00)
Language:

EUTE 9B - Orbit

View from above orbital plane
View from above orbital plane
View from above satellite
View from above satellite

Ground track
Ground track

The orbit data is extracted from the following two-line orbital elements,

1 41310U 16005A   20051.83135479 +.00000043 +00000-0 +00000-0 0  9996
2 41310 000.0663 081.7936 0005181 229.2289 147.4334 01.00272386014975
Epoch (UTC): 20 February 2020 19:57:09
Eccentricity: 0.0005181
inclination: 0.0663°
perigee height: 35764 km
apogee height: 35808 km
right ascension of ascending node: 81.7936°
argument of perigee: 229.2289°
revolutions per day: 1.00272386
mean anomaly at epoch: 147.4334°
orbit number at epoch: 1497

The dashed part of the orbit path shows where the satellite is in the earth's shadow,  

DLR